User: anonymous   Login
Location: ?
(35.4064°N, 139.3593°E)
Time: 00:47:48
(UTC+00:00)
Language:

IRS-1D - Orbit

View from above orbital plane
View from above orbital plane
View from above satellite
View from above satellite

Ground track
Ground track

The orbit data is extracted from the following two-line orbital elements,

1 24971U 97057A   24175.84135398  .00000235  00000-0  97624-4 0  9993
2 24971  98.7624 144.4084 0052310 197.1786 162.7630 14.34774325398854
Epoch (UTC): 23 June 2024 20:11:32
Eccentricity: 0.0052310
inclination: 98.7624°
perigee height: 738 km
apogee height: 813 km
right ascension of ascending node: 144.4084°
argument of perigee: 197.1786°
revolutions per day: 14.34774325
mean anomaly at epoch: 162.7630°
orbit number at epoch: 39885

The dashed part of the orbit path shows where the satellite is in the earth's shadow,  

DLR